Location: Gleizolles
(44.4833°N, 6.7667°E)
Time: 01:36:38
(UTC+00:00)

Transit 4A - All Passes

Search period start: 13 June 2024 00:00
Search period end: 23 June 2024 00:00
Orbit: 871 x 972 km, 66.8° (Epoch: 12 June)

Date Brightness Start Highest point End Pass type
(mag) Time Alt. Az. Time Alt. Az. Time Alt. Az.
13 Jun - 00:12:48 10° SSW 00:18:40 83° WNW 00:24:32 10° NNE visible
13 Jun - 02:01:46 10° W 02:05:54 19° NW 02:10:03 10° N visible
13 Jun - 07:27:43 10° NNW 07:32:53 30° NE 07:38:07 10° ESE daylight
13 Jun - 09:13:44 10° NW 09:19:31 56° WSW 09:25:25 10° SSE daylight
13 Jun - 22:37:15 10° SSE 22:41:51 24° ESE 22:46:27 10° NE visible
14 Jun - 00:22:00 10° SW 00:27:45 58° NW 00:33:30 10° NNE visible
14 Jun - 02:12:03 10° WNW 02:15:22 15° NNW 02:18:42 10° N visible
14 Jun - 05:51:50 10° N 05:54:06 12° NNE 05:56:22 10° NE daylight
14 Jun - 07:36:33 10° NNW 07:42:07 41° NE 07:47:47 10° ESE daylight
14 Jun - 09:22:59 10° NW 09:28:25 39° WSW 09:33:58 10° S daylight
14 Jun - 22:45:23 10° S 22:50:40 36° ESE 22:55:55 10° NE visible
15 Jun - 00:31:23 10° WSW 00:36:54 42° NW 00:42:25 10° NNE visible
15 Jun - 02:22:40 10° NW 02:24:54 12° NNW 02:27:09 10° N visible
15 Jun - 06:00:18 10° N 06:03:39 15° NNE 06:07:01 10° ENE daylight
15 Jun - 07:45:28 10° NNW 07:51:17 57° NE 07:57:14 10° SE daylight
15 Jun - 09:32:25 10° NW 09:37:15 26° WSW 09:42:10 10° SSW daylight
15 Jun - 22:53:53 10° S 22:59:32 53° ESE 23:05:12 10° NE visible
16 Jun - 00:41:01 10° WSW 00:46:08 31° NW 00:51:16 10° NNE visible
16 Jun - 06:08:56 10° N 06:13:07 19° NE 06:17:19 10° E daylight
16 Jun - 07:54:25 10° NNW 08:00:23 80° ENE 08:06:27 10° SE daylight
16 Jun - 09:42:11 10° WNW 09:46:01 18° WSW 09:49:53 10° SW daylight
16 Jun - 21:21:13 10° ESE 21:23:10 12° ESE 21:25:07 10° E visible
16 Jun - 23:02:39 10° SSW 23:08:29 78° ESE 23:14:19 10° NE visible
17 Jun - 00:50:53 10° W 00:55:28 23° NW 01:00:04 10° NNE visible
17 Jun - 06:17:41 10° NNW 06:22:30 25° NE 06:27:23 10° E daylight
17 Jun - 08:03:28 10° NW 08:09:23 73° WSW 08:15:26 10° SSE daylight
17 Jun - 09:53:00 10° W 09:54:42 11° W 09:56:26 10° WSW daylight
17 Jun - 21:27:59 10° SSE 21:31:51 18° ESE 21:35:43 10° ENE visible
17 Jun - 23:11:40 10° SW 23:17:31 74° WNW 23:23:21 10° NNE visible
18 Jun - 01:00:58 10° WNW 01:04:52 18° NW 01:08:47 10° N visible
18 Jun - 04:42:24 10° N 04:43:30 10° NNE 04:44:37 10° NNE daylight
18 Jun - 06:26:29 10° NNW 06:31:48 33° NE 06:37:12 10° ESE daylight
18 Jun - 08:12:37 10° NW 08:18:20 50° WSW 08:24:10 10° S daylight
18 Jun - 21:35:47 10° SSE 21:40:38 28° ESE 21:45:26 10° NE visible
18 Jun - 23:20:55 10° SW 23:26:37 52° NW 23:32:19 10° NNE visible
19 Jun - 01:11:19 10° WNW 01:14:21 14° NNW 01:17:23 10° N visible
19 Jun - 04:50:27 10° N 04:53:06 13° NNE 04:55:45 10° NE daylight
19 Jun - 06:35:21 10° NNW 06:41:01 45° NE 06:46:47 10° ESE daylight
19 Jun - 08:21:54 10° NW 08:27:13 34° WSW 08:32:37 10° S daylight
19 Jun - 21:44:03 10° S 21:49:27 41° ESE 21:54:51 10° NE visible
19 Jun - 23:30:24 10° WSW 23:35:47 38° NW 23:41:12 10° NNE visible
20 Jun - 01:22:05 10° NW 01:23:55 11° NNW 01:25:45 10° N visible
20 Jun - 04:58:59 10° N 05:02:38 16° NNE 05:06:17 10° ENE daylight
20 Jun - 06:44:16 10° NNW 06:50:09 63° NE 06:56:10 10° SE daylight
20 Jun - 08:31:25 10° WNW 08:36:01 24° WSW 08:40:41 10° SSW daylight
20 Jun - 21:52:37 10° SSW 21:58:20 60° ESE 22:04:04 10° NE visible
20 Jun - 23:40:05 10° WSW 23:45:02 28° NW 23:50:03 10° NNE visible
21 Jun - 05:07:40 10° N 05:12:04 21° NE 05:16:31 10° E daylight
21 Jun - 06:53:15 10° NNW 06:59:13 88° ENE 07:05:18 10° SSE daylight
21 Jun - 08:41:21 10° WNW 08:44:46 16° WSW 08:48:12 10° SW daylight
21 Jun - 20:19:11 10° SE 20:21:53 14° ESE 20:24:37 10° ENE visible
21 Jun - 22:01:28 10° SSW 22:07:18 86° SE 22:13:10 10° NNE visible
21 Jun - 23:50:00 10° W 23:54:23 22° NW 23:58:49 10° N visible
22 Jun - 05:16:26 10° NNW 05:21:25 27° NE 05:26:29 10° E daylight
22 Jun - 07:02:19 10° NW 07:08:13 66° WSW 07:14:13 10° SSE daylight
22 Jun - 20:26:23 10° SSE 20:30:36 21° ESE 20:34:48 10° ENE visible
22 Jun - 22:10:33 10° SW 22:16:21 67° NW 22:22:11 10° NNE visible
